STARLINK-38064, 69988

Orbit data source: Space-Track

STARLINK-38064, 69988 is a payload satellite owned by SpaceX/Seattle (US) in SSO that was launched on Sat, 11 Jul 2026 UTC via an FALCON 9 launch vehicle from the Air Force Western Test Range (AFWTR). Payload-class satellites include a variety of spacecraft equipped with specific instruments for various scientific and technological missions. These include communications satellites like Starlink; space stations such as the ISS; scientific satellites like the Hubble; Earth observation satellites from companies like Planet Labs, Umbra, and HawkEye 360; GPS; miniature CubeSats for education and research; and military/defense satellites.

Loading next visibility...
Identifier
69988, 2026-159P
Orbit
SSO
Country
Flag of USUS
Related business
Manufacturer
SpaceX/Seattle
Mission
Operational spacecraft
Bus & Motor
STARLINK V2MO, Unknown motor
Mass
575 kg wet, ~530 kg dry
Launch date (UTC)
2026-07-11 (2 months ago)
Launch vehicle
FALCON 9
Launch site
Air Force Western Test Range (AFWTR)
Object type
Payload
Rocket body
Debris
Shape & HBR
BOX, 17.7 m
Radar Cross Section
Large (>1 m²)

Expand to show TLE details & history
Last TLE update: 11 hours ago

TLE from 11 hours ago
0 STARLINK-38064
1 69988U 26159P   26265.60439735 -.01114206  00000-0 -24915-1 0  9990
2 69988  97.2843 107.4510 0001971  82.5779 277.5695 15.46484570 12771
Epoch: 2026-09-22T14:30Z
TLE epoch observation values (Epoch: 2026-09-22T14:30:19.931Z)
Latitude
0.00003°
Longitude
-111.59954°
Altitude
429.973 km
Speed
7.654 km/s
True Right ascension
07h 09m 48s
True Declination
0° 00' 00"
Sunlit
Object was in daylight at epoch
Visualization orbit readout
Latitude
Unknown
Longitude
Unknown
Altitude
Unknown
Speed
Unknown
Apparent Right ascension
Unknown
Apparent Declination
Unknown
Sunlit
N/A
Visualization observer readout
Local Sidereal Time
18:10:09
Azimuth
Unknown
Elevation
Unknown
Doppler factor
Unknown
Orbital elements
Apogee altitude
425.286 km
Perigee altitude
422.604 km
Semi-major axis
6,802.082 km
Eccentricity
0.0002
Inclination
97.2843°
RAAN
107.451°
Arg. of periapsis
82.5779°
True anomaly
277.54711°
Mean anomaly
277.5695°
Eccentric anomaly
277.55831°
Mean motion
3.86884 °/min
Orbital period
93.05 mins
BSTAR
-0.024915
Loading maneuver chart data...
Computing Atmospheric mass density...
Loading historical data...
Loading historical data...
Loading historical data...
Loading historical data...
Loading historical data...
Loading historical data...
Loading historical data...

Documentation

Showing up to 5 results
|